Location: Bosdarros
(43.2167°N, 0.3667°W)
Time: 16:12:04
(UTC+00:00)

USA 215 - Pass Details

Date: 22 April 2021
Orbit: 1101 x 1107 km, 123.0° (Epoch: 07 May)

Event Time Altitude Azimuth Distance (km) Brightness Sun altitude
Exits shadow 21:21:35 38° 100° (E) 1,620 3.7 -23.6°
Maximum altitude 21:24:10 65° 34° (NE) 1,203 3.4 -23.9°
Drops below altitude 10° 21:30:37 10° 315° (NW) 2,963 6.6 -24.7°
Sets 21:33:07 0° 312° (NW) 3,924 7.5 -25.0°
